Location: Lafig�re
(44.4503°N, 4.0357°E)
Time: 23:52:22
(UTC+00:00)

BlueWalker 3 - Pass Details

Date: 05 December 2022
Orbit: 499 x 517 km, 53.2° (Epoch: 05 February)

Event Time Altitude Azimuth Distance (km) Brightness Sun altitude
Rises 16:45:16 0° 294° (WNW) 2,631 6.3 -7.3°
Reaches altitude 10° 16:47:50 10° 310° (NW) 1,740 5.0 -7.7°
Maximum altitude 16:50:59 22° 3° (N) 1,143 3.5 -8.2°
Enters shadow 16:53:55 11° 55° (NE) 1,666 3.9 -8.7°
